Montpelier, VT

6:04 PM EST on January 21, 2018 (GMT -0500)
Knapp State

Weather History for KMPV - March, 2014

Change the Weather History Date:

Friday, March 14, 2014

  Actual Average Record
Temperature  
Mean Temperature 11 °F 28 °F  
Max Temperature 29 °F 38 °F 64 °F (2007)
Min Temperature -8 °F 18 °F -8 °F (2014)
Degree Days  
Heating Degree Days 54 37  
Month to date heating degree days 709 552  
Since 1 July heating degree days 6874 6460  
Cooling Degree Days 0 0  
Month to date cooling degree days 0 0  
Year to date cooling degree days 0 0  
Moisture  
Dew Point 4 °F    
Average Humidity 64    
Maximum Humidity 79    
Minimum Humidity 49    
Precipitation  
Precipitation T in 0.08 in 0.83 in (2017)
Month to date precipitation 1.18 1.03  
Year to date precipitation 5.49 5.52  
Sea Level Pressure  
Sea Level Pressure 29.99 in    
Wind  
Wind Speed 8 mph (South)    
Max Wind Speed 22 mph    
Max Gust Speed 30 mph    
Visibility 9 miles    
Events      
T = Trace of Precipitation, MM = Missing Value Source: NWS Daily Summary

Daily Weather History Graph

Daily Weather History Graph

Search for Another Location

Airport or City:

Trip Planner

Search our weather history database for the weather conditions in past years. The results will help you decide how hot, cold, wet, or windy it might be!

Date:

Astronomy

Mar. 14, 2014 Rise Set
Actual Time 7:04 AM EDT 6:55 PM EDT
Civil Twilight 6:35 AM EDT 7:23 PM EDT
Nautical Twilight 6:01 AM EDT 7:57 PM EDT
Astronomical Twilight 5:27 AM EDT 8:31 PM EDT
Moon 5:12 PM EDT (3/14) 5:46 AM EDT (3/14)
Length of Visible Light 12h 48m
Length of Day
11h 50m
Waxing Gibbous, 96% of the Moon is Illuminated
Mar 14
Waxing Gibbous
Mar 16
Full
Mar 23
Last Quarter
Mar 30
New
Apr 7
First Quarter

Hourly Weather History & Observations

Time (EDT) Temp. Windchill Dew Point Humidity Pressure Visibility Wind Dir Wind Speed Gust Speed Precip Events Conditions
12:51 AM 8.1 °F -4.3 °F -8.0 °F 48% 30.01 in 10.0 mi NW 8.1 mph - 0.00 in   Clear
1:51 AM 6.1 °F -2.8 °F -9.0 °F 50% 30.03 in 10.0 mi NW 4.6 mph - N/A   Clear
2:51 AM -0.9 °F -11.0 °F -9.9 °F 66% 30.05 in 10.0 mi South 4.6 mph - 0.00 in   Clear
3:51 AM -6.0 °F -18.6 °F -11.9 °F 75% 30.07 in 10.0 mi SSE 5.8 mph - N/A   Clear
4:51 AM -2.9 °F - -9.9 °F 72% 30.08 in 10.0 mi Calm Calm - N/A   Clear
5:51 AM -2.0 °F - -7.1 °F 79% 30.10 in 9.0 mi Calm Calm - N/A   Clear
7:32 AM -2.9 °F - -7.1 °F 82% 30.02 in 1.5 mi Calm Calm - N/A   Clear
7:51 AM -2.9 °F - -7.1 °F 82% 30.13 in 1.5 mi Calm Calm - N/A   Clear
7:54 AM -5.1 °F - -8.0 °F 87% 30.03 in 3.0 mi Calm Calm - N/A   Partly Cloudy
8:51 AM -0.9 °F - -5.1 °F 83% 30.12 in 9.0 mi Calm Calm - N/A   Clear
9:51 AM 5.0 °F - -2.9 °F 70% 30.12 in 9.0 mi Calm Calm - 0.00 in   Mostly Cloudy
10:51 AM 16.0 °F 0.6 °F 3.9 °F 59% 30.09 in 10.0 mi SSE 16.1 mph - 0.00 in   Overcast
11:51 AM 18.0 °F 2.2 °F 6.1 °F 60% 30.07 in 10.0 mi South 18.4 mph 25.3 mph N/A   Mostly Cloudy
12:51 PM 19.9 °F 4.8 °F 7.0 °F 57% 30.05 in 10.0 mi South 18.4 mph 25.3 mph N/A   Overcast
1:51 PM 21.9 °F 7.8 °F 9.0 °F 58% 30.01 in 10.0 mi South 17.3 mph - N/A   Overcast
2:51 PM 23.0 °F 10.1 °F 10.9 °F 60% 29.99 in 10.0 mi South 15.0 mph - N/A   Overcast
3:51 PM 25.0 °F 13.1 °F 14.0 °F 63% 29.96 in 10.0 mi SSE 13.8 mph 21.9 mph N/A   Overcast
4:51 PM 26.1 °F 16.2 °F 15.1 °F 63% 29.91 in 10.0 mi South 10.4 mph 19.6 mph N/A   Clear
5:51 PM 26.1 °F 15.6 °F 15.1 °F 63% 29.89 in 10.0 mi South 11.5 mph 23.0 mph N/A   Mostly Cloudy
6:51 PM 27.0 °F 18.7 °F 15.1 °F 61% 29.88 in 10.0 mi South 8.1 mph - N/A   Mostly Cloudy
7:51 PM 27.0 °F 17.3 °F 15.1 °F 61% 29.89 in 10.0 mi South 10.4 mph - N/A   Overcast
8:51 PM 27.0 °F 19.5 °F 15.1 °F 61% 29.88 in 10.0 mi South 6.9 mph - N/A   Mostly Cloudy
9:51 PM 26.1 °F 18.4 °F 15.1 °F 63% 29.86 in 10.0 mi South 6.9 mph - N/A   Clear
10:51 PM 27.0 °F 18.7 °F 17.1 °F 66% 29.83 in 10.0 mi SSE 8.1 mph - N/A   Overcast
11:51 PM 27.0 °F 17.3 °F 17.1 °F 66% 29.79 in 10.0 mi SSE 10.4 mph - N/A   Partly Cloudy